AEE4PA LGAV-LTFM

Flight info

Callsign AEE4PA
Flight time 1h 4m
Altitude 37000
Route KRO UN604 INBET
Aircraft A320/M-SDE3FGHIRWY/LB1

Departure

Time 2026-05-06 18:13
Airport Athens Eleftherios Venizelos International Airport (LGAV)

Arrival

Time 2026-05-06 19:17
Airport İstanbul Airport (LTFM)
Time Latitude Longitude Altitude Speed Heading
2026-05-06 17:51 37.93561 23.94810 300 ft 0 kts 318°
2026-05-06 18:04 37.93545 23.94828 301 ft 4 kts 320°
2026-05-06 18:04 37.93523 23.94848 301 ft 4 kts 330°
2026-05-06 18:04 37.93500 23.94860 301 ft 4 kts 14°
2026-05-06 18:05 37.93489 23.94854 302 ft 1 kts 37°
2026-05-06 18:05 37.93488 23.94853 302 ft 1 kts 37°
2026-05-06 18:07 37.93494 23.94859 302 ft 3 kts 37°
2026-05-06 18:07 37.93523 23.94886 302 ft 8 kts 37°
2026-05-06 18:08 37.93589 23.94952 301 ft 16 kts 47°
2026-05-06 18:08 37.93618 23.95097 302 ft 19 kts 53°
2026-05-06 18:08 37.93733 23.95215 301 ft 23 kts 36°
2026-05-06 18:08 37.93874 23.95349 303 ft 27 kts 37°
2026-05-06 18:09 37.94039 23.95502 299 ft 31 kts 37°
2026-05-06 18:09 37.94082 23.95661 300 ft 13 kts 75°
2026-05-06 18:09 37.94159 23.95764 298 ft 20 kts 37°
2026-05-06 18:09 37.94287 23.95886 299 ft 26 kts 36°
2026-05-06 18:10 37.94451 23.96040 300 ft 32 kts 36°
2026-05-06 18:10 37.94644 23.96224 300 ft 36 kts 37°
2026-05-06 18:10 37.94845 23.96414 302 ft 36 kts 37°
2026-05-06 18:10 37.95048 23.96608 303 ft 37 kts 37°
2026-05-06 18:11 37.95252 23.96802 303 ft 37 kts 37°
2026-05-06 18:11 37.95381 23.97000 304 ft 24 kts 116°
2026-05-06 18:11 37.95284 23.97029 309 ft 13 kts 174°
2026-05-06 18:11 37.95193 23.97020 310 ft 14 kts 207°
2026-05-06 18:12 37.95115 23.96942 309 ft 15 kts 210°
2026-05-06 18:12 37.94943 23.96787 307 ft 61 kts 217°
2026-05-06 18:12 37.94428 23.96297 292 ft 121 kts 217°
2026-05-06 18:12 37.93633 23.95538 321 ft 161 kts 218°
2026-05-06 18:13 37.92689 23.94722 834 ft 167 kts 212°
2026-05-06 18:13 37.91657 23.93994 1446 ft 171 kts 208°
2026-05-06 18:13 37.90601 23.93294 2070 ft 174 kts 207°
2026-05-06 18:13 37.89486 23.92565 2488 ft 188 kts 207°
2026-05-06 18:14 37.88290 23.91760 2897 ft 201 kts 208°
2026-05-06 18:14 37.87024 23.90876 3319 ft 216 kts 209°
2026-05-06 18:14 37.85646 23.89918 3759 ft 237 kts 209°
2026-05-06 18:14 37.84134 23.88893 4268 ft 254 kts 208°
2026-05-06 18:15 37.82568 23.87859 5198 ft 254 kts 208°
2026-05-06 18:15 37.80998 23.86807 6078 ft 257 kts 209°
2026-05-06 18:15 37.79407 23.85727 6918 ft 261 kts 209°
2026-05-06 18:15 37.77749 23.84777 7710 ft 266 kts 194°
2026-05-06 18:16 37.75898 23.84780 8489 ft 272 kts 164°
2026-05-06 18:16 37.74237 23.85925 9034 ft 286 kts 134°
2026-05-06 18:16 37.73127 23.88043 9716 ft 294 kts 117°
2026-05-06 18:16 37.72178 23.90355 10348 ft 303 kts 117°
2026-05-06 18:17 37.71174 23.92813 10568 ft 326 kts 117°
2026-05-06 18:17 37.70093 23.95450 10740 ft 349 kts 117°
2026-05-06 18:17 37.68948 23.98224 11157 ft 361 kts 117°
2026-05-06 18:17 37.67776 24.01049 11772 ft 366 kts 117°
2026-05-06 18:18 37.66583 24.03906 12405 ft 370 kts 117°
2026-05-06 18:18 37.65378 24.06789 13029 ft 375 kts 117°
2026-05-06 18:18 37.64150 24.09723 13644 ft 380 kts 117°
2026-05-06 18:18 37.62910 24.12686 14224 ft 384 kts 117°
2026-05-06 18:19 37.61656 24.15686 14742 ft 389 kts 117°
2026-05-06 18:19 37.60421 24.18741 15263 ft 393 kts 111°
2026-05-06 18:19 37.59723 24.22066 15759 ft 394 kts 94°
2026-05-06 18:19 37.59824 24.25508 16259 ft 394 kts 76°
2026-05-06 18:20 37.60715 24.28757 16771 ft 392 kts 59°
2026-05-06 18:20 37.62300 24.31529 17304 ft 390 kts 41°
2026-05-06 18:20 37.64434 24.33598 17858 ft 387 kts 25°
2026-05-06 18:20 37.66911 24.34895 18418 ft 386 kts 16°
2026-05-06 18:21 37.69454 24.36026 18925 ft 389 kts 16°
2026-05-06 18:21 37.72015 24.37162 19450 ft 391 kts 16°
2026-05-06 18:21 37.74591 24.38309 19985 ft 394 kts 16°
2026-05-06 18:21 37.77147 24.39452 20500 ft 396 kts 16°
2026-05-06 18:22 37.79751 24.40620 21003 ft 398 kts 16°
2026-05-06 18:22 37.82370 24.41798 21494 ft 401 kts 16°
2026-05-06 18:22 37.85009 24.42983 21971 ft 403 kts 16°
2026-05-06 18:22 37.87650 24.44171 22437 ft 405 kts 16°
2026-05-06 18:23 37.90309 24.45372 22904 ft 407 kts 16°
2026-05-06 18:23 37.92982 24.46580 23373 ft 409 kts 16°
2026-05-06 18:23 37.95668 24.47803 23796 ft 412 kts 18°
2026-05-06 18:23 37.98256 24.49417 24159 ft 419 kts 27°
2026-05-06 18:24 38.00616 24.51627 24538 ft 426 kts 38°
2026-05-06 18:24 38.02649 24.54357 24885 ft 433 kts 46°
2026-05-06 18:24 38.04579 24.57304 25220 ft 435 kts 45°
2026-05-06 18:24 38.06516 24.60259 25547 ft 438 kts 46°
2026-05-06 18:25 38.08475 24.63241 25897 ft 440 kts 46°
2026-05-06 18:25 38.10442 24.66233 26246 ft 443 kts 45°
2026-05-06 18:25 38.12421 24.69241 26601 ft 445 kts 45°
2026-05-06 18:25 38.14410 24.72268 26952 ft 447 kts 45°
2026-05-06 18:26 38.16408 24.75315 27292 ft 450 kts 45°
2026-05-06 18:26 38.18417 24.78381 27624 ft 453 kts 45°
2026-05-06 18:26 38.20436 24.81467 27961 ft 455 kts 45°
2026-05-06 18:26 38.22461 24.84574 28317 ft 456 kts 46°
2026-05-06 18:27 38.24484 24.87680 28824 ft 455 kts 45°
2026-05-06 18:27 38.26506 24.90788 29298 ft 455 kts 45°
2026-05-06 18:27 38.28517 24.93879 29766 ft 454 kts 45°
2026-05-06 18:27 38.30532 24.96973 30231 ft 453 kts 45°
2026-05-06 18:28 38.32542 25.00063 30653 ft 453 kts 45°
2026-05-06 18:28 38.34548 25.03150 31067 ft 452 kts 45°
2026-05-06 18:28 38.36554 25.06241 31488 ft 451 kts 45°
2026-05-06 18:28 38.38550 25.09323 31913 ft 450 kts 45°
2026-05-06 18:29 38.40540 25.12400 32344 ft 449 kts 45°
2026-05-06 18:29 38.42527 25.15470 32774 ft 448 kts 45°
2026-05-06 18:29 38.44515 25.18542 33210 ft 448 kts 45°
2026-05-06 18:29 38.46468 25.21561 33638 ft 447 kts 45°
2026-05-06 18:30 38.48443 25.24617 34074 ft 446 kts 45°
2026-05-06 18:30 38.50411 25.27668 34445 ft 445 kts 45°
2026-05-06 18:30 38.52395 25.30750 34808 ft 444 kts 45°
2026-05-06 18:30 38.54329 25.33765 35149 ft 443 kts 45°
2026-05-06 18:31 38.56276 25.36803 35477 ft 443 kts 45°
2026-05-06 18:31 38.58227 25.39842 35804 ft 442 kts 45°
2026-05-06 18:31 38.60177 25.42874 36135 ft 441 kts 45°
2026-05-06 18:31 38.62124 25.45903 36445 ft 441 kts 45°
2026-05-06 18:32 38.64067 25.48933 36750 ft 440 kts 46°
2026-05-06 18:32 38.66007 25.51963 37003 ft 440 kts 46°
2026-05-06 18:32 38.69915 25.58070 37079 ft 447 kts 46°
2026-05-06 18:33 38.73860 25.64247 37078 ft 448 kts 46°
2026-05-06 18:33 38.77804 25.70439 37084 ft 448 kts 46°
2026-05-06 18:34 38.81741 25.76640 37082 ft 448 kts 46°
2026-05-06 18:34 38.85004 25.81793 37085 ft 448 kts 46°
2026-05-06 18:35 38.88933 25.88010 37095 ft 448 kts 46°
2026-05-06 18:35 38.93499 25.95240 37105 ft 448 kts 46°
2026-05-06 18:36 38.96786 26.00452 37108 ft 448 kts 46°
2026-05-06 18:36 39.00682 26.06631 37105 ft 448 kts 46°
2026-05-06 18:37 39.04533 26.12745 37106 ft 448 kts 46°
2026-05-06 18:37 39.08441 26.18979 37107 ft 448 kts 46°
2026-05-06 18:38 39.12321 26.25192 37106 ft 447 kts 46°
2026-05-06 18:38 39.16221 26.31423 37107 ft 447 kts 46°
2026-05-06 18:39 39.20121 26.37676 37104 ft 447 kts 46°
2026-05-06 18:40 39.26981 26.45354 37107 ft 430 kts 24°
2026-05-06 18:40 39.32191 26.49159 37108 ft 430 kts 24°
2026-05-06 18:41 39.37193 26.53480 37096 ft 433 kts 29°
2026-05-06 18:41 39.42149 26.57927 37096 ft 433 kts 29°
2026-05-06 18:42 39.47108 26.62381 37106 ft 433 kts 29°
2026-05-06 18:42 39.52049 26.66825 37104 ft 433 kts 29°
2026-05-06 18:43 39.56961 26.71248 37114 ft 432 kts 30°
2026-05-06 18:43 39.61890 26.75685 37122 ft 432 kts 29°
2026-05-06 18:44 39.66820 26.80151 37114 ft 431 kts 29°
2026-05-06 18:44 39.71738 26.84607 37101 ft 431 kts 29°
2026-05-06 18:45 39.76654 26.89062 37110 ft 431 kts 30°
2026-05-06 18:45 39.81514 26.93493 36474 ft 426 kts 29°
2026-05-06 18:45 39.83946 26.95706 35858 ft 427 kts 29°
2026-05-06 18:46 39.86381 26.97920 35264 ft 427 kts 29°
2026-05-06 18:46 39.88815 27.00137 34684 ft 427 kts 29°
2026-05-06 18:46 39.91247 27.02358 34107 ft 427 kts 29°
2026-05-06 18:46 39.93675 27.04578 33437 ft 427 kts 29°
2026-05-06 18:47 39.96080 27.06777 32736 ft 427 kts 29°
2026-05-06 18:47 39.98518 27.09007 31996 ft 429 kts 29°
2026-05-06 18:47 40.00966 27.11245 31233 ft 431 kts 29°
2026-05-06 18:47 40.03426 27.13494 30460 ft 433 kts 29°
2026-05-06 18:48 40.05895 27.15756 29593 ft 435 kts 29°
2026-05-06 18:48 40.08395 27.18048 28131 ft 446 kts 30°
2026-05-06 18:48 40.10956 27.20397 27010 ft 451 kts 30°
2026-05-06 18:48 40.13520 27.22761 26224 ft 449 kts 31°
2026-05-06 18:49 40.16031 27.25050 26060 ft 429 kts 27°
2026-05-06 18:49 40.18631 27.26722 25932 ft 406 kts 15°
2026-05-06 18:49 40.21292 27.27614 25784 ft 386 kts
2026-05-06 18:49 40.23929 27.27890 25403 ft 377 kts
2026-05-06 18:50 40.26522 27.28061 25107 ft 369 kts
2026-05-06 18:50 40.29084 27.28226 25063 ft 369 kts
2026-05-06 18:50 40.31648 27.28394 25072 ft 369 kts
2026-05-06 18:50 40.34220 27.28559 25070 ft 370 kts
2026-05-06 18:51 40.36790 27.28731 25071 ft 369 kts
2026-05-06 18:51 40.39355 27.28908 25071 ft 369 kts
2026-05-06 18:51 40.41919 27.29088 25074 ft 369 kts
2026-05-06 18:51 40.44482 27.29266 25075 ft 369 kts
2026-05-06 18:52 40.47043 27.29443 24980 ft 367 kts
2026-05-06 18:52 40.49539 27.29617 24207 ft 361 kts
2026-05-06 18:52 40.52032 27.29790 23343 ft 357 kts
2026-05-06 18:52 40.54505 27.29959 22397 ft 354 kts
2026-05-06 18:53 40.56952 27.30126 21481 ft 350 kts
2026-05-06 18:53 40.59348 27.30612 20591 ft 350 kts 15°
2026-05-06 18:53 40.61513 27.32067 19728 ft 353 kts 34°
2026-05-06 18:53 40.63255 27.34360 18873 ft 354 kts 45°
2026-05-06 18:54 40.64868 27.36796 17966 ft 352 kts 45°
2026-05-06 18:54 40.66472 27.39222 17096 ft 348 kts 45°
2026-05-06 18:54 40.68048 27.41604 16262 ft 343 kts 45°
2026-05-06 18:54 40.69604 27.43956 15449 ft 338 kts 45°
2026-05-06 18:55 40.71149 27.46285 14748 ft 337 kts 45°
2026-05-06 18:55 40.72679 27.48594 14329 ft 333 kts 45°
2026-05-06 18:55 40.74197 27.50889 13907 ft 331 kts 46°
2026-05-06 18:55 40.75702 27.53171 13434 ft 328 kts 46°
2026-05-06 18:56 40.77196 27.55438 12972 ft 326 kts 45°
2026-05-06 18:56 40.78683 27.57694 12507 ft 324 kts 45°
2026-05-06 18:56 40.80154 27.59927 12059 ft 322 kts 45°
2026-05-06 18:56 40.81618 27.62151 11615 ft 320 kts 45°
2026-05-06 18:57 40.83055 27.64340 11448 ft 310 kts 45°
2026-05-06 18:57 40.84422 27.66426 11325 ft 299 kts 45°
2026-05-06 18:57 40.85762 27.68476 11191 ft 289 kts 45°
2026-05-06 18:57 40.87064 27.70465 11074 ft 284 kts 45°
2026-05-06 18:58 40.88344 27.72414 10943 ft 276 kts 45°
2026-05-06 18:58 40.89570 27.74328 10827 ft 270 kts 50°
2026-05-06 18:58 40.90464 27.76497 10595 ft 271 kts 65°
2026-05-06 18:58 40.90906 27.78936 10318 ft 274 kts 75°
2026-05-06 18:59 40.91247 27.81415 10035 ft 273 kts 75°
2026-05-06 18:59 40.91601 27.83872 9742 ft 270 kts 70°
2026-05-06 18:59 40.92387 27.86055 9442 ft 260 kts 47°
2026-05-06 18:59 40.93704 27.87618 9117 ft 252 kts 26°
2026-05-06 19:00 40.95311 27.88392 9002 ft 243 kts
2026-05-06 19:00 40.96997 27.88474 9007 ft 243 kts 358°
2026-05-06 19:00 40.98684 27.88449 8882 ft 242 kts 358°
2026-05-06 19:00 41.00366 27.88432 8579 ft 241 kts
2026-05-06 19:01 41.01991 27.88917 8166 ft 242 kts 24°
2026-05-06 19:01 41.03292 27.90339 7682 ft 249 kts 51°
2026-05-06 19:01 41.03941 27.92448 7395 ft 257 kts 79°
2026-05-06 19:01 41.03822 27.94839 7095 ft 263 kts 96°
2026-05-06 19:02 41.03488 27.97236 6797 ft 263 kts 97°
2026-05-06 19:02 41.03150 27.99593 6518 ft 263 kts 97°
2026-05-06 19:02 41.02807 28.01975 6230 ft 262 kts 97°
2026-05-06 19:02 41.02466 28.04348 5931 ft 261 kts 97°
2026-05-06 19:03 41.02130 28.06685 5622 ft 261 kts 98°
2026-05-06 19:03 41.01791 28.09048 5322 ft 260 kts 98°
2026-05-06 19:03 41.01457 28.11400 5065 ft 258 kts 98°
2026-05-06 19:03 41.01124 28.13742 4998 ft 260 kts 98°
2026-05-06 19:04 41.00790 28.16112 5007 ft 261 kts 98°
2026-05-06 19:04 41.00454 28.18484 5009 ft 262 kts 98°
2026-05-06 19:04 41.00119 28.20830 5010 ft 262 kts 99°
2026-05-06 19:04 40.99778 28.23205 5011 ft 261 kts 99°
2026-05-06 19:05 40.99441 28.25574 5008 ft 261 kts 98°
2026-05-06 19:05 40.99115 28.27863 5006 ft 252 kts 98°
2026-05-06 19:05 40.98789 28.30140 5006 ft 251 kts 99°
2026-05-06 19:05 40.98462 28.32416 5005 ft 251 kts 99°
2026-05-06 19:06 40.98136 28.34689 5003 ft 251 kts 98°
2026-05-06 19:06 40.97809 28.36961 5007 ft 251 kts 99°
2026-05-06 19:06 40.97332 28.39164 5007 ft 252 kts 114°
2026-05-06 19:06 40.96475 28.41207 5017 ft 253 kts 119°
2026-05-06 19:07 40.95600 28.43232 5014 ft 253 kts 119°
2026-05-06 19:07 40.94739 28.45225 5016 ft 253 kts 119°
2026-05-06 19:07 40.93862 28.47253 5016 ft 253 kts 119°
2026-05-06 19:07 40.92985 28.49277 5019 ft 253 kts 119°
2026-05-06 19:08 40.92111 28.51299 5015 ft 253 kts 119°
2026-05-06 19:08 40.91246 28.53298 5020 ft 253 kts 119°
2026-05-06 19:08 40.90370 28.55324 5024 ft 253 kts 119°
2026-05-06 19:08 40.89692 28.57430 5021 ft 251 kts 101°
2026-05-06 19:09 40.89547 28.59717 5025 ft 248 kts 82°
2026-05-06 19:09 40.89934 28.61917 5031 ft 245 kts 67°
2026-05-06 19:09 40.90490 28.64030 5027 ft 245 kts 68°
2026-05-06 19:09 40.91048 28.66176 5034 ft 245 kts 68°
2026-05-06 19:10 40.91769 28.68169 5032 ft 241 kts 51°
2026-05-06 19:10 40.92898 28.69765 5037 ft 236 kts 33°
2026-05-06 19:10 40.94298 28.70894 5039 ft 234 kts 25°
2026-05-06 19:10 40.95708 28.71925 5039 ft 234 kts 25°
2026-05-06 19:11 40.97130 28.72925 5031 ft 226 kts 17°
2026-05-06 19:11 40.98617 28.73312 5036 ft 213 kts 356°
2026-05-06 19:11 41.00100 28.73283 5036 ft 212 kts 356°
2026-05-06 19:11 41.01581 28.73252 5022 ft 213 kts 356°
2026-05-06 19:12 41.03041 28.73224 4853 ft 211 kts 356°
2026-05-06 19:12 41.04511 28.73195 4584 ft 211 kts 356°
2026-05-06 19:12 41.05981 28.73167 4303 ft 210 kts 356°
2026-05-06 19:12 41.07446 28.73139 4022 ft 210 kts 357°
2026-05-06 19:13 41.08911 28.73110 3741 ft 210 kts 357°
2026-05-06 19:13 41.10378 28.73082 3460 ft 211 kts 357°
2026-05-06 19:13 41.11829 28.73054 3178 ft 211 kts 358°
2026-05-06 19:13 41.13301 28.73026 2892 ft 211 kts 358°
2026-05-06 19:14 41.14777 28.72997 2613 ft 212 kts 358°
2026-05-06 19:14 41.16255 28.72969 2348 ft 209 kts 358°
2026-05-06 19:14 41.17636 28.72943 2056 ft 191 kts 358°
2026-05-06 19:14 41.18899 28.72918 1824 ft 172 kts 358°
2026-05-06 19:15 41.20036 28.72896 1612 ft 153 kts 359°
2026-05-06 19:15 41.21058 28.72877 1394 ft 145 kts 359°
2026-05-06 19:15 41.22047 28.72858 1155 ft 140 kts
2026-05-06 19:15 41.23016 28.72839 995 ft 139 kts
2026-05-06 19:16 41.23978 28.72822 823 ft 138 kts
2026-05-06 19:16 41.24923 28.72803 638 ft 137 kts
2026-05-06 19:16 41.25883 28.72774 436 ft 137 kts
2026-05-06 19:16 41.26823 28.72756 356 ft 128 kts
2026-05-06 19:17 41.27576 28.72750 329 ft 74 kts 358°
2026-05-06 19:17 41.27940 28.72761 333 ft 41 kts 15°
2026-05-06 19:17 41.28095 28.72854 333 ft 1 kts 29°
2026-05-06 19:17 41.28105 28.72862 334 ft 0 kts 29°
2026-05-06 19:18 41.28114 28.72869 334 ft 3 kts 34°
2026-05-06 19:18 41.28128 28.72923 332 ft 10 kts 97°
2026-05-06 19:18 41.28058 28.72959 333 ft 15 kts 177°
2026-05-06 19:18 41.27932 28.72965 334 ft 21 kts 179°
2026-05-06 19:19 41.27772 28.72968 334 ft 24 kts 179°
2026-05-06 19:19 41.27593 28.72974 333 ft 27 kts 180°
2026-05-06 19:19 41.27400 28.72977 333 ft 29 kts 178°
2026-05-06 19:19 41.27187 28.72982 333 ft 31 kts 179°
2026-05-06 19:20 41.27002 28.72987 330 ft 26 kts 173°
2026-05-06 19:20 41.26952 28.73161 334 ft 15 kts 88°
2026-05-06 19:20 41.26956 28.73313 334 ft 18 kts 89°
2026-05-06 19:20 41.26958 28.73500 332 ft 22 kts 89°
2026-05-06 19:21 41.26961 28.73716 334 ft 25 kts 88°
2026-05-06 19:21 41.26959 28.73837 334 ft 7 kts 112°
2026-05-06 19:21 41.26907 28.73864 333 ft 11 kts 179°
2026-05-06 19:21 41.26820 28.73874 332 ft 15 kts 177°
2026-05-06 19:22 41.26705 28.73877 333 ft 18 kts 178°
2026-05-06 19:22 41.26589 28.73864 331 ft 13 kts 220°
2026-05-06 19:22 41.26580 28.73758 331 ft 0 kts 268°
2026-05-06 19:22 41.26580 28.73750 331 ft 0 kts 268°